Topeka Forbes, KS

3:26 AM CDT on June 24, 2018 (GMT -0500)
Forbes

Weather History for KFOE - December, 2015

Change the Weather History Date:

Sunday, December 20, 2015

  Actual Average Record
Temperature  
Mean Temperature 52 °F -  
Max Temperature 57 °F 36 °F 63 °F (1966)
Min Temperature 48 °F 19 °F -16 °F (1983)
Degree Days  
Heating Degree Days 12    
Growing Degree Days 2 (Base 50)    
Moisture  
Dew Point 42 °F    
Average Humidity 69    
Maximum Humidity 81    
Minimum Humidity 52    
Precipitation  
Precipitation 0.00 in - - ()
Sea Level Pressure  
Sea Level Pressure 29.81 in    
Wind  
Wind Speed 20 mph (South)    
Max Wind Speed 25 mph    
Max Gust Speed 37 mph    
Visibility 10 miles    
Events Rain    
Averages and records for this station are not official NWS values.
T = Trace of Precipitation, MM = Missing Value Source: NWS Daily Summary

Daily Weather History Graph

Daily Weather History Graph

Search for Another Location

Airport or City:

Astronomy

Dec. 20, 2015 Rise Set
Actual Time 7:37 AM CST 5:03 PM CST
Civil Twilight 7:07 AM CST 5:33 PM CST
Nautical Twilight 6:33 AM CST 6:06 PM CST
Astronomical Twilight 6:01 AM CST 6:39 PM CST
Moon 1:46 PM CST (12/20) 2:05 AM CST (12/20)
Length of Visible Light 10h 26m
Length of Day
9h 26m
Waxing Gibbous, 73% of the Moon is Illuminated
Dec 20
Waxing Gibbous
Dec 25
Full
Jan 1
Last Quarter
Jan 9
New
Jan 16
First Quarter

Hourly Weather History & Observations

Time (CST) Temp. Dew Point Humidity Pressure Visibility Wind Dir Wind Speed Gust Speed Precip Events Conditions
12:53 AM 48.9 °F 32.0 °F 52% 30.04 in 10.0 mi South 19.6 mph 32.2 mph N/A   Clear
1:53 AM 48.0 °F 32.0 °F 54% 30.00 in 10.0 mi South 21.9 mph 28.8 mph N/A   Clear
2:53 AM 48.0 °F 34.0 °F 58% 29.98 in 10.0 mi South 21.9 mph 29.9 mph N/A   Clear
3:53 AM 48.0 °F 35.1 °F 61% 29.96 in 10.0 mi South 18.4 mph 27.6 mph N/A   Clear
4:53 AM 48.0 °F 35.1 °F 61% 29.94 in 10.0 mi South 17.3 mph - N/A   Clear
5:53 AM 48.0 °F 35.1 °F 61% 29.92 in 10.0 mi South 23.0 mph 28.8 mph N/A   Clear
6:53 AM 48.0 °F 36.0 °F 63% 29.91 in 10.0 mi South 23.0 mph 34.5 mph N/A   Clear
7:53 AM 48.0 °F 36.0 °F 63% 29.91 in 10.0 mi South 21.9 mph 33.4 mph N/A   Clear
8:53 AM 48.9 °F 37.0 °F 64% 29.88 in 10.0 mi South 20.7 mph 29.9 mph N/A   Clear
9:53 AM 51.1 °F 39.0 °F 63% 29.87 in 10.0 mi South 25.3 mph 33.4 mph N/A   Clear
10:37 AM 52.0 °F 39.9 °F 63% 29.87 in 10.0 mi South 25.3 mph 36.8 mph N/A   Mostly Cloudy
10:53 AM 52.0 °F 41.0 °F 66% 29.86 in 10.0 mi South 23.0 mph 33.4 mph N/A   Overcast
11:53 AM 53.1 °F 42.1 °F 66% 29.81 in 10.0 mi South 19.6 mph 32.2 mph N/A   Overcast
12:53 PM 55.0 °F 45.0 °F 69% 29.75 in 10.0 mi South 20.7 mph 27.6 mph N/A   Overcast
1:53 PM 55.0 °F 46.0 °F 72% 29.74 in 10.0 mi South 21.9 mph 29.9 mph N/A   Overcast
2:53 PM 55.9 °F 46.9 °F 72% 29.71 in 10.0 mi South 21.9 mph - N/A   Overcast
3:53 PM 55.9 °F 46.9 °F 72% 29.71 in 10.0 mi South 18.4 mph 25.3 mph N/A   Overcast
4:53 PM 55.9 °F 46.9 °F 72% 29.70 in 10.0 mi South 20.7 mph 26.5 mph N/A   Overcast
5:53 PM 55.9 °F 48.0 °F 75% 29.71 in 10.0 mi South 17.3 mph - N/A   Overcast
6:53 PM 55.9 °F 48.0 °F 75% 29.71 in 10.0 mi South 12.7 mph 21.9 mph N/A   Overcast
7:53 PM 55.9 °F 48.9 °F 77% 29.72 in 10.0 mi South 16.1 mph - 0.00 in Rain Light Rain
8:53 PM 55.0 °F 48.9 °F 80% 29.71 in 10.0 mi South 16.1 mph - 0.00 in   Overcast
9:53 PM 55.9 °F 50.0 °F 80% 29.70 in 10.0 mi South 16.1 mph - N/A   Overcast
10:45 PM 57.0 °F 51.1 °F 81% 29.69 in 10.0 mi South 11.5 mph - N/A   Overcast
10:53 PM 57.0 °F 51.1 °F 81% 29.68 in 10.0 mi South 10.4 mph - N/A   Overcast
11:53 PM 57.0 °F 51.1 °F 81% 29.65 in 10.0 mi SSE 10.4 mph - N/A   Overcast